Time,TemperatureF,DewpointF,PressureIn,WindDirection,WindDirectionDegrees,WindSpeedMPH,WindSpeedGustMPH,Humidity,HourlyPrecipIn,Conditions,Clouds,dailyrainin,SoftwareType,DateUTC
2013-03-26 00:00:00,34.9,24.0,29.48,ENE,68,0.0,4.0,64,0.00,,OVC250,0.00,VWS V14.01,2013-03-26 04:00:00,
2013-03-26 00:05:00,34.9,24.3,29.48,ENE,68,1.0,14.0,65,0.00,,OVC250,0.00,VWS V14.01,2013-03-26 04:05:00,
2013-03-26 00:10:00,34.8,23.9,29.48,ENE,68,1.0,11.0,64,0.00,,OVC250,0.00,VWS V14.01,2013-03-26 04:10:00,
2013-03-26 00:15:00,34.8,23.9,29.48,ENE,68,1.0,15.0,64,0.00,,OVC250,0.00,VWS V14.01,2013-03-26 04:15:00,
2013-03-26 00:20:00,34.8,23.9,29.48,ENE,68,0.0,0.0,64,0.00,,OVC250,0.00,VWS V14.01,2013-03-26 04:20:00,
2013-03-26 00:25:00,34.7,24.1,29.48,ENE,68,1.0,12.0,65,0.00,,OVC250,0.00,VWS V14.01,2013-03-26 04:25:00,
2013-03-26 00:30:00,34.6,23.7,29.49,ENE,68,1.0,15.0,64,0.00,,OVC250,0.00,VWS V14.01,2013-03-26 04:30:00,
2013-03-26 00:35:00,34.5,23.6,29.49,ENE,68,0.0,0.0,64,0.00,,OVC250,0.00,VWS V14.01,2013-03-26 04:35:00,
2013-03-26 00:40:00,34.5,24.0,29.49,ENE,68,0.0,8.0,65,0.00,,OVC250,0.00,VWS V14.01,2013-03-26 04:40:00,
2013-03-26 00:45:00,34.3,23.8,29.49,ENE,68,1.0,10.0,65,0.00,,OVC250,0.00,VWS V14.01,2013-03-26 04:45:00,
2013-03-26 00:50:00,34.3,24.1,29.49,ENE,68,1.0,10.0,66,0.00,,OVC250,0.00,VWS V14.01,2013-03-26 04:50:00,
2013-03-26 00:55:00,34.3,24.1,29.49,ENE,68,0.0,0.0,66,0.00,,OVC250,0.00,VWS V14.01,2013-03-26 04:55:00,
2013-03-26 01:00:00,34.2,24.0,29.49,ENE,68,0.0,0.0,66,0.00,,OVC250,0.00,VWS V14.01,2013-03-26 05:00:00,
2013-03-26 01:05:00,34.2,24.4,29.49,ENE,68,0.0,8.0,67,0.00,,OVC250,0.00,VWS V14.01,2013-03-26 05:05:00,
2013-03-26 01:10:00,34.2,24.4,29.49,ENE,68,0.0,0.0,67,0.00,,OVC250,0.00,VWS V14.01,2013-03-26 05:10:00,
2013-03-26 01:15:00,34.1,24.3,29.49,ENE,68,0.0,0.0,67,0.00,,OVC250,0.00,VWS V14.01,2013-03-26 05:15:00,
2013-03-26 01:20:00,34.0,24.6,29.49,ENE,68,1.0,12.0,68,0.00,,OVC250,0.00,VWS V14.01,2013-03-26 05:20:00,
2013-03-26 01:25:00,34.0,24.6,29.50,ENE,68,0.0,9.0,68,0.00,,OVC250,0.00,VWS V14.01,2013-03-26 05:25:00,
2013-03-26 01:30:00,33.9,24.8,29.49,ENE,68,0.0,8.0,69,0.00,,OVC250,0.00,VWS V14.01,2013-03-26 05:30:00,
2013-03-26 01:35:00,33.7,24.6,29.50,ENE,68,4.0,16.0,69,0.00,,OVC250,0.00,VWS V14.01,2013-03-26 05:35:00,
2013-03-26 01:40:00,33.6,24.9,29.50,NE,45,2.0,17.0,70,0.00,,OVC250,0.00,VWS V14.01,2013-03-26 05:40:00,
2013-03-26 01:45:00,33.5,25.1,29.50,NE,45,1.0,17.0,71,0.00,,OVC250,0.00,VWS V14.01,2013-03-26 05:45:00,
2013-03-26 01:50:00,33.4,25.4,29.50,NE,45,1.0,13.0,72,0.00,,OVC250,0.00,VWS V14.01,2013-03-26 05:50:00,
2013-03-26 01:55:00,33.3,25.6,29.50,NE,45,1.0,9.0,73,0.00,,OVC250,0.00,VWS V14.01,2013-03-26 05:55:00,
2013-03-26 02:00:00,33.3,25.9,29.50,NE,45,1.0,13.0,74,0.00,,OVC250,0.00,VWS V14.01,2013-03-26 06:00:00,
2013-03-26 02:05:00,33.3,26.2,29.50,NE,45,1.0,10.0,75,0.00,,OVC250,0.00,VWS V14.01,2013-03-26 06:05:00,
2013-03-26 02:10:00,33.3,26.6,29.50,NE,45,0.0,9.0,76,0.00,,OVC250,0.00,VWS V14.01,2013-03-26 06:10:00,
2013-03-26 02:15:00,33.1,26.4,29.50,NE,45,1.0,15.0,76,0.00,,OVC250,0.00,VWS V14.01,2013-03-26 06:15:00,
2013-03-26 02:20:00,33.1,26.7,29.50,NE,45,0.0,6.0,77,0.00,,OVC250,0.00,VWS V14.01,2013-03-26 06:20:00,
2013-03-26 02:25:00,33.1,27.0,29.50,NE,45,0.0,10.0,78,0.00,,OVC250,0.00,VWS V14.01,2013-03-26 06:25:00,
2013-03-26 02:30:00,33.1,27.0,29.50,NE,45,0.0,8.0,78,0.00,,OVC250,0.00,VWS V14.01,2013-03-26 06:30:00,
2013-03-26 02:35:00,33.1,27.0,29.51,NE,45,0.0,0.0,78,0.00,,OVC250,0.00,VWS V14.01,2013-03-26 06:35:00,
2013-03-26 02:40:00,33.0,26.9,29.51,NE,45,0.0,0.0,78,0.00,,OVC250,0.00,VWS V14.01,2013-03-26 06:40:00,
2013-03-26 02:45:00,33.0,26.9,29.51,NE,45,0.0,0.0,78,0.00,,OVC250,0.00,VWS V14.01,2013-03-26 06:45:00,
2013-03-26 02:50:00,33.0,26.9,29.51,NE,45,0.0,0.0,78,0.00,,OVC250,0.00,VWS V14.01,2013-03-26 06:50:00,
2013-03-26 02:55:00,33.0,26.9,29.51,NE,45,0.0,0.0,78,0.00,,OVC250,0.00,VWS V14.01,2013-03-26 06:55:00,
2013-03-26 03:00:00,33.0,26.9,29.51,NE,45,0.0,0.0,78,0.00,,OVC250,0.00,VWS V14.01,2013-03-26 07:00:00,
2013-03-26 03:05:00,33.0,27.2,29.51,NE,45,0.0,0.0,79,0.00,,OVC250,0.00,VWS V14.01,2013-03-26 07:05:00,
2013-03-26 03:10:00,32.8,27.0,29.51,NE,45,0.0,0.0,79,0.00,,OVC250,0.00,VWS V14.01,2013-03-26 07:10:00,
2013-03-26 03:15:00,32.8,27.0,29.51,North,0,0.0,0.0,79,0.00,,OVC250,0.00,VWS V14.01,2013-03-26 07:15:00,
2013-03-26 03:20:00,32.7,26.9,29.51,North,0,0.0,0.0,79,0.00,,OVC250,0.00,VWS V14.01,2013-03-26 07:20:00,
2013-03-26 03:25:00,32.7,26.9,29.51,North,0,0.0,0.0,79,0.00,,OVC250,0.00,VWS V14.01,2013-03-26 07:25:00,
2013-03-26 03:30:00,32.5,26.7,29.51,North,0,0.0,0.0,79,0.00,,OVC250,0.00,VWS V14.01,2013-03-26 07:30:00,
2013-03-26 03:35:00,32.5,26.7,29.51,North,0,0.0,0.0,79,0.00,,OVC250,0.00,VWS V14.01,2013-03-26 07:35:00,
2013-03-26 03:40:00,32.5,26.7,29.51,North,0,0.0,0.0,79,0.00,,OVC250,0.00,VWS V14.01,2013-03-26 07:40:00,
2013-03-26 03:45:00,32.4,26.6,29.51,North,0,0.0,0.0,79,0.00,,OVC250,0.00,VWS V14.01,2013-03-26 07:45:00,
2013-03-26 03:50:00,32.4,26.6,29.51,North,0,0.0,0.0,79,0.00,,OVC250,0.00,VWS V14.01,2013-03-26 07:50:00,
2013-03-26 03:55:00,32.4,26.6,29.51,North,0,0.0,0.0,79,0.00,,OVC250,0.00,VWS V14.01,2013-03-26 07:55:00,
2013-03-26 04:00:00,32.3,26.5,29.51,North,0,0.0,0.0,79,0.00,,OVC250,0.00,VWS V14.01,2013-03-26 08:00:00,
2013-03-26 04:05:00,32.4,26.6,29.51,North,0,0.0,0.0,79,0.00,,OVC250,0.00,VWS V14.01,2013-03-26 08:05:00,
2013-03-26 04:10:00,32.4,26.6,29.51,North,0,0.0,0.0,79,0.00,,OVC250,0.00,VWS V14.01,2013-03-26 08:10:00,
2013-03-26 04:15:00,32.4,26.6,29.51,North,0,0.0,0.0,79,0.00,,OVC250,0.00,VWS V14.01,2013-03-26 08:15:00,
2013-03-26 04:20:00,32.4,26.6,29.52,North,0,0.0,0.0,79,0.00,,OVC250,0.00,VWS V14.01,2013-03-26 08:20:00,
2013-03-26 04:25:00,32.4,26.6,29.52,North,0,0.0,0.0,79,0.00,,OVC250,0.00,VWS V14.01,2013-03-26 08:25:00,
2013-03-26 04:30:00,32.4,26.6,29.52,North,0,0.0,0.0,79,0.00,,OVC250,0.00,VWS V14.01,2013-03-26 08:30:00,
2013-03-26 04:35:00,32.4,26.6,29.52,North,0,0.0,0.0,79,0.00,,OVC250,0.00,VWS V14.01,2013-03-26 08:35:00,
2013-03-26 04:40:00,32.4,26.6,29.52,North,0,0.0,0.0,79,0.00,,OVC250,0.00,VWS V14.01,2013-03-26 08:40:00,
2013-03-26 04:45:00,32.4,26.6,29.53,North,0,0.0,0.0,79,0.00,,OVC250,0.00,VWS V14.01,2013-03-26 08:45:00,
2013-03-26 04:50:00,32.4,26.6,29.53,North,0,0.0,0.0,79,0.00,,OVC250,0.00,VWS V14.01,2013-03-26 08:50:00,
2013-03-26 04:55:00,32.4,26.6,29.53,North,0,0.0,0.0,79,0.00,,OVC250,0.00,VWS V14.01,2013-03-26 08:55:00,
2013-03-26 05:00:00,32.5,26.7,29.53,North,0,0.0,0.0,79,0.00,,OVC250,0.00,VWS V14.01,2013-03-26 09:00:00,
2013-03-26 05:05:00,32.5,26.4,29.53,North,0,0.0,0.0,78,0.00,,OVC250,0.00,VWS V14.01,2013-03-26 09:05:00,
2013-03-26 05:10:00,32.5,26.4,29.53,North,0,0.0,0.0,78,0.00,,OVC250,0.00,VWS V14.01,2013-03-26 09:10:00,
2013-03-26 05:15:00,32.5,26.4,29.53,North,0,0.0,0.0,78,0.00,,OVC250,0.00,VWS V14.01,2013-03-26 09:15:00,
2013-03-26 05:20:00,32.5,26.4,29.54,North,0,0.0,0.0,78,0.00,,OVC250,0.00,VWS V14.01,2013-03-26 09:20:00,
2013-03-26 05:25:00,32.5,26.1,29.54,North,0,0.0,0.0,77,0.00,,OVC250,0.00,VWS V14.01,2013-03-26 09:25:00,
2013-03-26 05:30:00,32.5,26.1,29.54,North,0,0.0,0.0,77,0.00,,OVC250,0.00,VWS V14.01,2013-03-26 09:30:00,
2013-03-26 05:35:00,32.5,26.1,29.54,North,0,0.0,0.0,77,0.00,,OVC250,0.00,VWS V14.01,2013-03-26 09:35:00,
2013-03-26 05:40:00,32.5,26.1,29.54,North,0,0.0,0.0,77,0.00,,OVC250,0.00,VWS V14.01,2013-03-26 09:40:00,
2013-03-26 05:45:00,32.4,26.0,29.54,North,0,0.0,0.0,77,0.00,,OVC250,0.00,VWS V14.01,2013-03-26 09:45:00,
2013-03-26 05:50:00,32.4,26.0,29.55,North,0,0.0,0.0,77,0.00,,OVC250,0.00,VWS V14.01,2013-03-26 09:50:00,
2013-03-26 05:55:00,32.2,26.1,29.55,North,0,0.0,0.0,78,0.00,,OVC250,0.00,VWS V14.01,2013-03-26 09:55:00,
2013-03-26 06:00:00,32.2,26.1,29.55,North,0,0.0,0.0,78,0.00,,OVC250,0.00,VWS V14.01,2013-03-26 10:00:00,
2013-03-26 06:05:00,32.2,26.1,29.55,North,0,0.0,0.0,78,0.00,,OVC250,0.00,VWS V14.01,2013-03-26 10:05:00,
2013-03-26 06:10:00,32.2,25.8,29.56,North,0,0.0,0.0,77,0.00,,OVC250,0.00,VWS V14.01,2013-03-26 10:10:00,
2013-03-26 06:15:00,32.2,25.8,29.56,North,0,0.0,0.0,77,0.00,,OVC250,0.00,VWS V14.01,2013-03-26 10:15:00,
2013-03-26 06:20:00,32.4,26.0,29.56,North,0,0.0,0.0,77,0.00,,OVC250,0.00,VWS V14.01,2013-03-26 10:20:00,
2013-03-26 06:25:00,32.4,25.7,29.56,North,0,0.0,0.0,76,0.00,,OVC250,0.00,VWS V14.01,2013-03-26 10:25:00,
2013-03-26 06:30:00,32.4,25.7,29.56,North,0,0.0,0.0,76,0.00,,OVC250,0.00,VWS V14.01,2013-03-26 10:30:00,
2013-03-26 06:35:00,32.5,25.8,29.56,North,0,0.0,0.0,76,0.00,,OVC250,0.00,VWS V14.01,2013-03-26 10:35:00,
2013-03-26 06:40:00,32.5,25.8,29.56,North,0,0.0,0.0,76,0.00,,OVC250,0.00,VWS V14.01,2013-03-26 10:40:00,
2013-03-26 06:45:00,32.7,25.7,29.57,North,0,0.0,0.0,75,0.00,,OVC250,0.00,VWS V14.01,2013-03-26 10:45:00,
2013-03-26 06:50:00,32.7,25.7,29.57,NE,45,0.0,7.0,75,0.00,,OVC250,0.00,VWS V14.01,2013-03-26 10:50:00,
2013-03-26 06:55:00,32.7,25.7,29.57,NE,45,0.0,0.0,75,0.00,,OVC250,0.00,VWS V14.01,2013-03-26 10:55:00,
2013-03-26 07:00:00,32.8,25.8,29.57,NE,45,0.0,0.0,75,0.00,,OVC250,0.00,VWS V14.01,2013-03-26 11:00:00,
2013-03-26 07:05:00,32.8,25.8,29.57,NE,45,0.0,0.0,75,0.00,,OVC250,0.00,VWS V14.01,2013-03-26 11:05:00,
2013-03-26 07:10:00,32.8,25.4,29.57,NE,45,1.0,11.0,74,0.00,,OVC250,0.00,VWS V14.01,2013-03-26 11:10:00,
2013-03-26 07:15:00,32.8,25.4,29.57,NE,45,0.0,0.0,74,0.00,,OVC250,0.00,VWS V14.01,2013-03-26 11:15:00,
2013-03-26 07:20:00,33.0,26.0,29.58,NE,45,0.0,1.0,75,0.00,,OVC250,0.00,VWS V14.01,2013-03-26 11:20:00,
2013-03-26 07:25:00,33.0,25.6,29.57,NE,45,0.0,0.0,74,0.00,,OVC250,0.00,VWS V14.01,2013-03-26 11:25:00,
2013-03-26 07:30:00,33.0,26.0,29.58,NE,45,0.0,0.0,75,0.00,,OVC250,0.00,VWS V14.01,2013-03-26 11:30:00,
2013-03-26 07:35:00,33.1,25.7,29.58,NE,45,0.0,4.0,74,0.00,,OVC250,0.00,VWS V14.01,2013-03-26 11:35:00,
2013-03-26 07:40:00,33.1,25.7,29.58,NE,45,0.0,0.0,74,0.00,,OVC250,0.00,VWS V14.01,2013-03-26 11:40:00,
2013-03-26 07:45:00,33.2,25.8,29.58,NE,45,0.0,0.0,74,0.00,,OVC250,0.00,VWS V14.01,2013-03-26 11:45:00,
2013-03-26 07:50:00,33.3,25.9,29.59,NE,45,0.0,0.0,74,0.00,,OVC250,0.00,VWS V14.01,2013-03-26 11:50:00,
2013-03-26 07:55:00,33.3,25.9,29.59,NE,45,0.0,0.0,74,0.00,,OVC250,0.00,VWS V14.01,2013-03-26 11:55:00,
2013-03-26 08:00:00,33.3,25.9,29.59,NE,45,0.0,0.0,74,0.00,,OVC250,0.00,VWS V14.01,2013-03-26 12:00:00,
2013-03-26 08:05:00,33.4,26.0,29.59,NE,45,0.0,0.0,74,0.00,,OVC250,0.00,VWS V14.01,2013-03-26 12:05:00,
2013-03-26 08:10:00,33.6,26.2,29.59,NE,45,0.0,0.0,74,0.00,,OVC250,0.00,VWS V14.01,2013-03-26 12:10:00,
2013-03-26 08:15:00,33.7,26.3,29.60,NE,45,0.0,0.0,74,0.00,,OVC250,0.00,VWS V14.01,2013-03-26 12:15:00,
2013-03-26 08:20:00,33.8,26.4,29.60,NE,45,0.0,0.0,74,0.00,,OVC250,0.00,VWS V14.01,2013-03-26 12:20:00,
2013-03-26 08:25:00,34.0,26.6,29.60,NE,45,0.0,0.0,74,0.00,,OVC250,0.00,VWS V14.01,2013-03-26 12:25:00,
2013-03-26 08:30:00,34.1,26.7,29.61,NE,45,0.0,6.0,74,0.00,,OVC250,0.00,VWS V14.01,2013-03-26 12:30:00,
2013-03-26 08:35:00,34.2,26.8,29.61,NE,45,1.0,6.0,74,0.00,,OVC250,0.00,VWS V14.01,2013-03-26 12:35:00,
2013-03-26 08:40:00,34.3,26.6,29.61,NE,45,1.0,6.0,73,0.00,,OVC250,0.00,VWS V14.01,2013-03-26 12:40:00,
2013-03-26 08:45:00,34.5,26.8,29.61,NE,45,0.0,0.0,73,0.00,,OVC250,0.00,VWS V14.01,2013-03-26 12:45:00,
2013-03-26 08:50:00,34.7,27.0,29.61,NE,45,0.0,0.0,73,0.00,,OVC250,0.00,VWS V14.01,2013-03-26 12:50:00,
2013-03-26 08:55:00,34.8,27.0,29.61,NE,45,1.0,10.0,73,0.00,,OVC250,0.00,VWS V14.01,2013-03-26 12:55:00,
2013-03-26 09:00:00,34.9,27.1,29.60,NE,45,0.0,5.0,73,0.00,,OVC250,0.00,VWS V14.01,2013-03-26 13:00:00,
2013-03-26 09:05:00,35.1,27.0,29.60,NE,45,0.0,0.0,72,0.00,,OVC250,0.00,VWS V14.01,2013-03-26 13:05:00,
2013-03-26 09:10:00,35.3,27.2,29.60,NE,45,3.0,14.0,72,0.00,,OVC250,0.00,VWS V14.01,2013-03-26 13:10:00,
2013-03-26 09:15:00,35.4,27.0,29.60,NNE,22,1.0,12.0,71,0.00,,OVC250,0.00,VWS V14.01,2013-03-26 13:15:00,
2013-03-26 09:20:00,35.6,27.1,29.61,NNE,22,0.0,7.0,71,0.00,,OVC250,0.00,VWS V14.01,2013-03-26 13:20:00,
2013-03-26 09:25:00,35.6,27.1,29.61,West,270,6.0,33.0,71,0.00,,OVC250,0.00,VWS V14.01,2013-03-26 13:25:00,
2013-03-26 09:30:00,35.8,27.3,29.61,West,270,0.0,1.0,71,0.00,,OVC250,0.00,VWS V14.01,2013-03-26 13:30:00,
2013-03-26 09:35:00,35.9,27.4,29.61,West,270,0.0,1.0,71,0.00,,OVC250,0.00,VWS V14.01,2013-03-26 13:35:00,
2013-03-26 09:40:00,36.0,27.2,29.62,West,270,2.0,10.0,70,0.00,,OVC250,0.00,VWS V14.01,2013-03-26 13:40:00,
2013-03-26 09:45:00,36.2,27.4,29.62,West,270,1.0,13.0,70,0.00,,OVC250,0.00,VWS V14.01,2013-03-26 13:45:00,
2013-03-26 09:50:00,36.3,27.5,29.62,West,270,0.0,1.0,70,0.00,,OVC250,0.00,VWS V14.01,2013-03-26 13:50:00,
2013-03-26 09:55:00,36.5,27.7,29.62,West,270,1.0,17.0,70,0.00,,OVC250,0.00,VWS V14.01,2013-03-26 13:55:00,
2013-03-26 10:00:00,36.8,27.6,29.62,West,270,0.0,0.0,69,0.00,,OVC250,0.00,VWS V14.01,2013-03-26 14:00:00,
2013-03-26 10:05:00,37.0,27.8,29.62,West,270,0.0,3.0,69,0.00,,OVC250,0.00,VWS V14.01,2013-03-26 14:05:00,
2013-03-26 10:10:00,37.3,27.7,29.62,West,270,0.0,3.0,68,0.00,,OVC250,0.00,VWS V14.01,2013-03-26 14:10:00,
2013-03-26 10:15:00,37.5,27.5,29.62,West,270,3.0,16.0,67,0.00,,OVC250,0.00,VWS V14.01,2013-03-26 14:15:00,
2013-03-26 10:20:00,37.5,27.5,29.62,West,270,1.0,10.0,67,0.00,,OVC250,0.00,VWS V14.01,2013-03-26 14:20:00,
2013-03-26 10:25:00,37.8,27.5,29.62,West,270,0.0,10.0,66,0.00,,OVC250,0.00,VWS V14.01,2013-03-26 14:25:00,
2013-03-26 10:30:00,38.1,27.4,29.62,West,270,3.0,14.0,65,0.00,,OVC250,0.00,VWS V14.01,2013-03-26 14:30:00,
2013-03-26 10:35:00,38.3,27.2,29.63,West,270,6.0,18.0,64,0.00,,OVC250,0.00,VWS V14.01,2013-03-26 14:35:00,
2013-03-26 10:40:00,38.4,27.3,29.63,WNW,292,2.0,17.0,64,0.00,,OVC250,0.00,VWS V14.01,2013-03-26 14:40:00,
2013-03-26 10:45:00,38.5,27.8,29.63,WNW,292,4.0,26.0,65,0.00,,OVC250,0.00,VWS V14.01,2013-03-26 14:45:00,
2013-03-26 10:50:00,38.5,27.4,29.63,NNE,22,6.0,19.0,64,0.00,,OVC250,0.00,VWS V14.01,2013-03-26 14:50:00,
2013-03-26 10:55:00,38.6,27.5,29.63,North,0,2.0,17.0,64,0.00,,OVC250,0.00,VWS V14.01,2013-03-26 14:55:00,
2013-03-26 11:00:00,38.6,27.5,29.63,NNW,338,2.0,13.0,64,0.00,,OVC250,0.00,VWS V14.01,2013-03-26 15:00:00,
2013-03-26 11:05:00,38.6,27.5,29.63,WNW,292,4.0,18.0,64,0.00,,OVC250,0.00,VWS V14.01,2013-03-26 15:05:00,
2013-03-26 11:10:00,38.7,27.6,29.63,WNW,292,6.0,15.0,64,0.00,,OVC250,0.00,VWS V14.01,2013-03-26 15:10:00,
2013-03-26 11:15:00,39.0,27.9,29.63,WNW,292,1.0,11.0,64,0.00,,OVC250,0.00,VWS V14.01,2013-03-26 15:15:00,
2013-03-26 11:20:00,39.3,28.2,29.64,WNW,292,5.0,22.0,64,0.00,,OVC250,0.00,VWS V14.01,2013-03-26 15:20:00,
2013-03-26 11:25:00,39.6,28.1,29.63,NW,315,5.0,17.0,63,0.00,,OVC250,0.00,VWS V14.01,2013-03-26 15:25:00,
2013-03-26 11:30:00,40.0,27.6,29.63,WNW,292,3.0,14.0,61,0.00,,OVC250,0.00,VWS V14.01,2013-03-26 15:30:00,
2013-03-26 11:35:00,40.5,28.1,29.63,West,270,3.0,19.0,61,0.00,,OVC250,0.00,VWS V14.01,2013-03-26 15:35:00,
2013-03-26 11:40:00,41.1,27.5,29.63,West,270,11.0,24.0,58,0.00,,OVC250,0.00,VWS V14.01,2013-03-26 15:40:00,
2013-03-26 11:45:00,41.1,26.2,29.63,West,270,7.0,22.0,55,0.00,,OVC250,0.00,VWS V14.01,2013-03-26 15:45:00,
2013-03-26 11:50:00,41.5,27.0,29.63,West,270,12.0,30.0,56,0.00,,OVC250,0.00,VWS V14.01,2013-03-26 15:50:00,
2013-03-26 11:55:00,42.0,26.6,29.63,West,270,6.0,24.0,54,0.00,,OVC250,0.00,VWS V14.01,2013-03-26 15:55:00,
2013-03-26 12:00:00,42.5,26.6,29.64,WNW,292,3.0,15.0,53,0.00,,OVC250,0.00,VWS V14.01,2013-03-26 16:00:00,
2013-03-26 12:05:00,42.4,27.0,29.64,WSW,248,3.0,23.0,54,0.00,,OVC250,0.00,VWS V14.01,2013-03-26 16:05:00,
2013-03-26 12:10:00,41.9,26.0,29.63,WSW,248,6.0,26.0,53,0.00,,OVC250,0.00,VWS V14.01,2013-03-26 16:10:00,
2013-03-26 12:15:00,41.4,25.6,29.64,West,270,2.0,13.0,53,0.00,,OVC250,0.00,VWS V14.01,2013-03-26 16:15:00,
2013-03-26 12:20:00,41.3,25.5,29.63,West,270,1.0,7.0,53,0.00,,OVC250,0.00,VWS V14.01,2013-03-26 16:20:00,
2013-03-26 12:25:00,41.6,25.8,29.63,West,270,1.0,13.0,53,0.00,,OVC250,0.00,VWS V14.01,2013-03-26 16:25:00,
2013-03-26 12:30:00,41.8,25.5,29.63,West,270,1.0,16.0,52,0.00,,OVC250,0.00,VWS V14.01,2013-03-26 16:30:00,
2013-03-26 12:35:00,41.8,25.5,29.63,WNW,292,6.0,27.0,52,0.00,,OVC250,0.00,VWS V14.01,2013-03-26 16:35:00,
2013-03-26 12:40:00,41.8,25.0,29.63,West,270,1.0,13.0,51,0.00,,OVC250,0.00,VWS V14.01,2013-03-26 16:40:00,
2013-03-26 12:45:00,41.8,25.5,29.63,WNW,292,4.0,19.0,52,0.00,,OVC250,0.00,VWS V14.01,2013-03-26 16:45:00,
2013-03-26 12:50:00,42.2,24.4,29.63,WNW,292,3.0,24.0,49,0.00,,OVC250,0.00,VWS V14.01,2013-03-26 16:50:00,
2013-03-26 12:55:00,42.8,24.0,29.63,NW,315,8.0,20.0,47,0.00,,OVC250,0.00,VWS V14.01,2013-03-26 16:55:00,
2013-03-26 13:00:00,42.7,24.4,29.63,West,270,5.0,21.0,48,0.00,,OVC250,0.00,VWS V14.01,2013-03-26 17:00:00,
2013-03-26 13:05:00,42.7,24.9,29.63,West,270,0.0,10.0,49,0.00,,OVC250,0.00,VWS V14.01,2013-03-26 17:05:00,
2013-03-26 13:10:00,43.4,24.0,29.63,West,270,1.0,12.0,46,0.00,,OVC250,0.00,VWS V14.01,2013-03-26 17:10:00,
2013-03-26 13:15:00,43.3,24.4,29.63,West,270,0.0,4.0,47,0.00,,OVC250,0.00,VWS V14.01,2013-03-26 17:15:00,
2013-03-26 13:20:00,43.2,24.4,29.63,NW,315,2.0,19.0,47,0.00,,OVC250,0.00,VWS V14.01,2013-03-26 17:20:00,
2013-03-26 13:25:00,43.1,23.2,29.63,NW,315,0.0,10.0,45,0.00,,OVC250,0.00,VWS V14.01,2013-03-26 17:25:00,
2013-03-26 13:30:00,42.9,23.0,29.64,NW,315,5.0,22.0,45,0.00,,OVC250,0.00,VWS V14.01,2013-03-26 17:30:00,
2013-03-26 13:35:00,42.8,22.4,29.63,WNW,292,2.0,16.0,44,0.00,,OVC250,0.00,VWS V14.01,2013-03-26 17:35:00,
2013-03-26 13:40:00,42.9,23.6,29.64,West,270,2.0,18.0,46,0.00,,OVC250,0.00,VWS V14.01,2013-03-26 17:40:00,
2013-03-26 13:45:00,43.2,23.3,29.64,West,270,12.0,29.0,45,0.00,,OVC250,0.00,VWS V14.01,2013-03-26 17:45:00,
2013-03-26 13:50:00,42.7,22.9,29.64,West,270,12.0,33.0,45,0.00,,OVC250,0.00,VWS V14.01,2013-03-26 17:50:00,
2013-03-26 13:55:00,42.6,22.8,29.64,West,270,16.0,41.0,45,0.00,,OVC250,0.00,VWS V14.01,2013-03-26 17:55:00,
2013-03-26 14:00:00,42.5,23.2,29.64,West,270,11.0,23.0,46,0.00,,OVC250,0.00,VWS V14.01,2013-03-26 18:00:00,
2013-03-26 14:05:00,42.6,23.3,29.63,West,270,14.0,34.0,46,0.00,,OVC250,0.00,VWS V14.01,2013-03-26 18:05:00,
2013-03-26 14:10:00,43.1,22.7,29.63,West,270,7.0,22.0,44,0.00,,OVC250,0.00,VWS V14.01,2013-03-26 18:10:00,
2013-03-26 14:15:00,43.4,23.0,29.63,West,270,8.0,25.0,44,0.00,,OVC250,0.00,VWS V14.01,2013-03-26 18:15:00,
2013-03-26 14:20:00,44.1,24.1,29.63,West,270,6.0,33.0,45,0.00,,OVC250,0.00,VWS V14.01,2013-03-26 18:20:00,
2013-03-26 14:25:00,44.2,24.2,29.63,West,270,14.0,46.0,45,0.00,,OVC250,0.00,VWS V14.01,2013-03-26 18:25:00,
2013-03-26 14:30:00,44.3,22.1,29.63,West,270,10.0,32.0,41,0.00,,OVC250,0.00,VWS V14.01,2013-03-26 18:30:00,
2013-03-26 14:35:00,44.4,23.3,29.63,NW,315,6.0,27.0,43,0.00,,OVC250,0.00,VWS V14.01,2013-03-26 18:35:00,
2013-03-26 14:40:00,44.2,22.6,29.63,West,270,2.0,20.0,42,0.00,,OVC250,0.00,VWS V14.01,2013-03-26 18:40:00,
2013-03-26 14:45:00,44.1,21.9,29.63,NW,315,3.0,29.0,41,0.00,,OVC250,0.00,VWS V14.01,2013-03-26 18:45:00,
2013-03-26 14:50:00,44.3,22.1,29.63,West,270,7.0,25.0,41,0.00,,OVC250,0.00,VWS V14.01,2013-03-26 18:50:00,
2013-03-26 14:55:00,44.3,22.1,29.63,West,270,3.0,14.0,41,0.00,,OVC250,0.00,VWS V14.01,2013-03-26 18:55:00,
2013-03-26 15:00:00,44.4,22.8,29.64,West,270,2.0,19.0,42,0.00,,OVC250,0.00,VWS V14.01,2013-03-26 19:00:00,
2013-03-26 15:05:00,44.3,23.2,29.64,NW,315,3.0,17.0,43,0.00,,OVC250,0.00,VWS V14.01,2013-03-26 19:05:00,
2013-03-26 15:10:00,44.4,22.2,29.64,West,270,5.0,24.0,41,0.00,,OVC250,0.00,VWS V14.01,2013-03-26 19:10:00,
2013-03-26 15:15:00,44.3,20.9,29.64,NW,315,4.0,25.0,39,0.00,,OVC250,0.00,VWS V14.01,2013-03-26 19:15:00,
2013-03-26 15:20:00,44.8,22.0,29.64,NW,315,8.0,20.0,40,0.00,,OVC250,0.00,VWS V14.01,2013-03-26 19:20:00,
2013-03-26 15:25:00,45.7,22.2,29.64,NNW,338,6.0,28.0,39,0.00,,OVC250,0.00,VWS V14.01,2013-03-26 19:25:00,
2013-03-26 15:30:00,46.6,21.1,29.64,NNW,338,6.0,25.0,36,0.00,,OVC250,0.00,VWS V14.01,2013-03-26 19:30:00,
2013-03-26 15:35:00,46.7,22.5,29.64,WNW,292,1.0,11.0,38,0.00,,OVC250,0.00,VWS V14.01,2013-03-26 19:35:00,
2013-03-26 15:40:00,46.0,21.8,29.64,WNW,292,2.0,17.0,38,0.00,,OVC250,0.00,VWS V14.01,2013-03-26 19:40:00,
2013-03-26 15:45:00,44.9,21.5,29.64,NW,315,3.0,22.0,39,0.00,,OVC250,0.00,VWS V14.01,2013-03-26 19:45:00,
2013-03-26 15:50:00,43.9,21.7,29.64,NNW,338,1.0,11.0,41,0.00,,OVC250,0.00,VWS V14.01,2013-03-26 19:50:00,
2013-03-26 15:55:00,43.6,20.9,29.64,NNW,338,7.0,32.0,40,0.00,,OVC250,0.00,VWS V14.01,2013-03-26 19:55:00,
2013-03-26 16:00:00,43.4,21.3,29.64,NW,315,3.0,21.0,41,0.00,,OVC250,0.00,VWS V14.01,2013-03-26 20:00:00,
2013-03-26 16:05:00,43.1,21.0,29.64,WNW,292,3.0,20.0,41,0.00,,OVC250,0.00,VWS V14.01,2013-03-26 20:05:00,
2013-03-26 16:10:00,42.9,21.4,29.64,West,270,3.0,17.0,42,0.00,,OVC250,0.00,VWS V14.01,2013-03-26 20:10:00,
2013-03-26 16:15:00,43.3,21.2,29.64,West,270,5.0,18.0,41,0.00,,OVC250,0.00,VWS V14.01,2013-03-26 20:15:00,
2013-03-26 16:20:00,43.8,20.5,29.64,West,270,1.0,13.0,39,0.00,,OVC250,0.00,VWS V14.01,2013-03-26 20:20:00,
2013-03-26 16:25:00,43.5,20.8,29.64,NW,315,4.0,19.0,40,0.00,,OVC250,0.00,VWS V14.01,2013-03-26 20:25:00,
2013-03-26 16:30:00,43.2,21.1,29.65,NW,315,5.0,25.0,41,0.00,,OVC250,0.00,VWS V14.01,2013-03-26 20:30:00,
2013-03-26 16:35:00,43.2,21.1,29.65,NW,315,1.0,7.0,41,0.00,,OVC250,0.00,VWS V14.01,2013-03-26 20:35:00,
2013-03-26 16:40:00,43.0,21.5,29.65,NW,315,0.0,1.0,42,0.00,,OVC250,0.00,VWS V14.01,2013-03-26 20:40:00,
2013-03-26 16:45:00,42.9,20.8,29.65,NW,315,0.0,2.0,41,0.00,,OVC250,0.00,VWS V14.01,2013-03-26 20:45:00,
2013-03-26 16:50:00,42.9,20.8,29.65,NW,315,0.0,2.0,41,0.00,,OVC250,0.00,VWS V14.01,2013-03-26 20:50:00,
2013-03-26 16:55:00,43.1,21.6,29.65,WNW,292,1.0,20.0,42,0.00,,OVC250,0.00,VWS V14.01,2013-03-26 20:55:00,
2013-03-26 17:00:00,43.6,21.5,29.65,WNW,292,2.0,18.0,41,0.00,,OVC250,0.00,VWS V14.01,2013-03-26 21:00:00,
2013-03-26 17:05:00,43.9,20.6,29.65,NW,315,1.0,15.0,39,0.00,,OVC250,0.00,VWS V14.01,2013-03-26 21:05:00,
2013-03-26 17:10:00,43.7,19.8,29.65,WNW,292,3.0,17.0,38,0.00,,OVC250,0.00,VWS V14.01,2013-03-26 21:10:00,
2013-03-26 17:15:00,43.4,20.1,29.65,WNW,292,7.0,29.0,39,0.00,,OVC250,0.00,VWS V14.01,2013-03-26 21:15:00,
2013-03-26 17:20:00,43.2,20.5,29.65,WNW,292,4.0,24.0,40,0.00,,OVC250,0.00,VWS V14.01,2013-03-26 21:20:00,
2013-03-26 17:25:00,43.2,20.5,29.65,NNE,22,1.0,16.0,40,0.00,,OVC250,0.00,VWS V14.01,2013-03-26 21:25:00,
2013-03-26 17:30:00,43.5,20.2,29.66,NNE,22,2.0,16.0,39,0.00,,OVC250,0.00,VWS V14.01,2013-03-26 21:30:00,
2013-03-26 17:35:00,44.1,20.1,29.66,NNE,22,2.0,17.0,38,0.00,,OVC250,0.00,VWS V14.01,2013-03-26 21:35:00,
2013-03-26 17:40:00,44.4,19.8,29.66,NW,315,5.0,19.0,37,0.00,,OVC250,0.00,VWS V14.01,2013-03-26 21:40:00,
2013-03-26 17:45:00,44.0,20.0,29.66,WNW,292,2.0,18.0,38,0.00,,OVC250,0.00,VWS V14.01,2013-03-26 21:45:00,
2013-03-26 17:50:00,43.5,20.8,29.66,WNW,292,0.0,4.0,40,0.00,,OVC250,0.00,VWS V14.01,2013-03-26 21:50:00,
2013-03-26 17:55:00,43.3,20.0,29.66,WNW,292,0.0,11.0,39,0.00,,OVC250,0.00,VWS V14.01,2013-03-26 21:55:00,
2013-03-26 18:00:00,42.9,20.8,29.67,WNW,292,0.0,10.0,41,0.00,,OVC250,0.00,VWS V14.01,2013-03-26 22:00:00,
2013-03-26 18:05:00,42.5,20.5,29.67,WNW,292,0.0,0.0,41,0.00,,OVC250,0.00,VWS V14.01,2013-03-26 22:05:00,
2013-03-26 18:10:00,42.2,19.6,29.67,WNW,292,1.0,20.0,40,0.00,,OVC250,0.00,VWS V14.01,2013-03-26 22:10:00,
2013-03-26 18:15:00,41.8,19.3,29.67,West,270,1.0,11.0,40,0.00,,OVC250,0.00,VWS V14.01,2013-03-26 22:15:00,
2013-03-26 18:20:00,41.6,19.1,29.67,West,270,1.0,12.0,40,0.00,,OVC250,0.00,VWS V14.01,2013-03-26 22:20:00,
2013-03-26 18:25:00,41.4,20.6,29.68,West,270,0.0,0.0,43,0.00,,OVC250,0.00,VWS V14.01,2013-03-26 22:25:00,
2013-03-26 18:30:00,41.2,19.9,29.68,West,270,0.0,7.0,42,0.00,,OVC250,0.00,VWS V14.01,2013-03-26 22:30:00,
2013-03-26 18:35:00,40.9,19.6,29.68,West,270,0.0,9.0,42,0.00,,OVC250,0.00,VWS V14.01,2013-03-26 22:35:00,
2013-03-26 18:40:00,40.6,20.4,29.68,West,270,0.0,0.0,44,0.00,,OVC250,0.00,VWS V14.01,2013-03-26 22:40:00,
2013-03-26 18:45:00,40.3,19.6,29.68,West,270,0.0,0.0,43,0.00,,OVC250,0.00,VWS V14.01,2013-03-26 22:45:00,
2013-03-26 18:50:00,40.0,19.9,29.68,West,270,0.0,3.0,44,0.00,,OVC250,0.00,VWS V14.01,2013-03-26 22:50:00,
2013-03-26 18:55:00,39.8,19.1,29.68,West,270,0.0,8.0,43,0.00,,OVC250,0.00,VWS V14.01,2013-03-26 22:55:00,
2013-03-26 19:00:00,39.7,19.0,29.69,West,270,0.0,0.0,43,0.00,,OVC250,0.00,VWS V14.01,2013-03-26 23:00:00,
2013-03-26 19:05:00,39.4,19.3,29.69,West,270,0.0,0.0,44,0.00,,OVC250,0.00,VWS V14.01,2013-03-26 23:05:00,
2013-03-26 19:10:00,39.2,19.1,29.69,West,270,0.0,0.0,44,0.00,,OVC250,0.00,VWS V14.01,2013-03-26 23:10:00,
2013-03-26 19:15:00,39.0,19.0,29.69,West,270,0.0,0.0,44,0.00,,OVC250,0.00,VWS V14.01,2013-03-26 23:15:00,
2013-03-26 19:20:00,38.8,19.3,29.69,West,270,0.0,2.0,45,0.00,,OVC250,0.00,VWS V14.01,2013-03-26 23:20:00,
2013-03-26 19:25:00,38.6,19.1,29.70,West,270,0.0,0.0,45,0.00,,OVC250,0.00,VWS V14.01,2013-03-26 23:25:00,
2013-03-26 19:30:00,38.3,18.8,29.70,West,270,0.0,0.0,45,0.00,,OVC250,0.00,VWS V14.01,2013-03-26 23:30:00,
2013-03-26 19:35:00,38.0,19.1,29.70,West,270,0.0,0.0,46,0.00,,OVC250,0.00,VWS V14.01,2013-03-26 23:35:00,
2013-03-26 19:40:00,37.8,18.9,29.70,West,270,0.0,0.0,46,0.00,,OVC250,0.00,VWS V14.01,2013-03-26 23:40:00,
2013-03-26 19:45:00,37.6,18.7,29.70,West,270,0.0,0.0,46,0.00,,OVC250,0.00,VWS V14.01,2013-03-26 23:45:00,
2013-03-26 19:50:00,37.4,19.0,29.70,West,270,0.0,0.0,47,0.00,,OVC250,0.00,VWS V14.01,2013-03-26 23:50:00,
2013-03-26 19:55:00,37.1,18.8,29.71,West,270,0.0,0.0,47,0.00,,OVC250,0.00,VWS V14.01,2013-03-26 23:55:00,
2013-03-26 20:00:00,36.9,19.5,29.71,West,270,0.0,0.0,49,0.00,,OVC250,0.00,VWS V14.01,2013-03-27 00:00:00,
2013-03-26 20:05:00,36.6,19.3,29.71,West,270,0.0,0.0,49,0.00,,OVC250,0.00,VWS V14.01,2013-03-27 00:05:00,
2013-03-26 20:10:00,36.3,18.5,29.71,West,270,0.0,0.0,48,0.00,,OVC250,0.00,VWS V14.01,2013-03-27 00:10:00,
2013-03-26 20:15:00,36.2,18.9,29.71,West,270,0.0,0.0,49,0.00,,OVC250,0.00,VWS V14.01,2013-03-27 00:15:00,
2013-03-26 20:20:00,35.9,18.1,29.71,West,270,0.0,0.0,48,0.00,,OVC250,0.00,VWS V14.01,2013-03-27 00:20:00,
2013-03-26 20:25:00,35.8,19.5,29.72,West,270,0.0,0.0,51,0.00,,OVC250,0.00,VWS V14.01,2013-03-27 00:25:00,
2013-03-26 20:30:00,35.6,18.8,29.72,West,270,0.0,0.0,50,0.00,,OVC250,0.00,VWS V14.01,2013-03-27 00:30:00,
2013-03-26 20:35:00,35.5,19.2,29.72,West,270,0.0,0.0,51,0.00,,OVC250,0.00,VWS V14.01,2013-03-27 00:35:00,
2013-03-26 20:40:00,35.3,19.0,29.72,West,270,0.0,0.0,51,0.00,,OVC250,0.00,VWS V14.01,2013-03-27 00:40:00,
2013-03-26 20:45:00,35.3,19.0,29.72,West,270,0.0,0.0,51,0.00,,OVC250,0.00,VWS V14.01,2013-03-27 00:45:00,
2013-03-26 20:50:00,35.1,19.3,29.72,West,270,0.0,0.0,52,0.00,,OVC250,0.00,VWS V14.01,2013-03-27 00:50:00,
2013-03-26 20:55:00,34.9,19.1,29.72,West,270,0.0,0.0,52,0.00,,OVC250,0.00,VWS V14.01,2013-03-27 00:55:00,
2013-03-26 21:00:00,34.7,18.9,29.72,West,270,0.0,0.0,52,0.00,,OVC250,0.00,VWS V14.01,2013-03-27 01:00:00,
2013-03-26 21:05:00,34.6,18.8,29.73,West,270,0.0,0.0,52,0.00,,OVC250,0.00,VWS V14.01,2013-03-27 01:05:00,
2013-03-26 21:10:00,34.3,18.5,29.73,West,270,0.0,0.0,52,0.00,,OVC250,0.00,VWS V14.01,2013-03-27 01:10:00,
2013-03-26 21:15:00,34.1,18.3,29.73,West,270,0.0,0.0,52,0.00,,OVC250,0.00,VWS V14.01,2013-03-27 01:15:00,
2013-03-26 21:20:00,33.9,18.1,29.73,West,270,0.0,0.0,52,0.00,,OVC250,0.00,VWS V14.01,2013-03-27 01:20:00,
2013-03-26 21:25:00,33.9,19.0,29.73,West,270,0.0,0.0,54,0.00,,OVC250,0.00,VWS V14.01,2013-03-27 01:25:00,
2013-03-26 21:30:00,33.6,18.3,29.73,West,270,0.0,0.0,53,0.00,,OVC250,0.00,VWS V14.01,2013-03-27 01:30:00,
2013-03-26 21:35:00,33.5,19.1,29.74,West,270,0.0,0.0,55,0.00,,OVC250,0.00,VWS V14.01,2013-03-27 01:35:00,
2013-03-26 21:48:00,33.5,19.1,29.74,West,270,0.0,0.0,55,0.00,,OVC250,0.00,VWS V14.01,2013-03-27 01:48:00,
2013-03-26 21:53:00,33.0,19.0,29.74,West,272,0.0,0.0,56,0.00,,OVC250,0.00,VWS V14.01,2013-03-27 01:53:00,
2013-03-26 21:58:00,32.8,18.8,29.74,West,272,0.0,0.0,56,0.00,,OVC250,0.00,VWS V14.01,2013-03-27 01:58:00,
2013-03-26 22:03:00,32.8,18.8,29.74,West,272,0.0,0.0,56,0.00,,FEW065,0.00,VWS V14.01,2013-03-27 02:03:00,
2013-03-26 22:08:00,32.8,19.3,29.74,West,272,0.0,0.0,57,0.00,,FEW065,0.00,VWS V14.01,2013-03-27 02:08:00,
2013-03-26 22:13:00,32.8,19.3,29.74,West,272,0.0,0.0,57,0.00,,FEW065,0.00,VWS V14.01,2013-03-27 02:13:00,
2013-03-26 22:18:00,32.7,19.2,29.74,West,272,0.0,0.0,57,0.00,,FEW065,0.00,VWS V14.01,2013-03-27 02:18:00,
2013-03-26 22:23:00,32.7,19.2,29.74,West,272,0.0,0.0,57,0.00,,FEW065,0.00,VWS V14.01,2013-03-27 02:23:00,
2013-03-26 22:28:00,32.5,19.0,29.74,West,272,0.0,0.0,57,0.00,,FEW065,0.00,VWS V14.01,2013-03-27 02:28:00,
2013-03-26 22:33:00,32.5,19.0,29.74,West,272,0.0,0.0,57,0.00,,FEW065,0.00,VWS V14.01,2013-03-27 02:33:00,
2013-03-26 22:38:00,32.5,19.0,29.74,West,272,0.0,0.0,57,0.00,,FEW065,0.00,VWS V14.01,2013-03-27 02:38:00,
2013-03-26 22:43:00,32.4,18.9,29.74,West,272,0.0,0.0,57,0.00,,FEW065,0.00,VWS V14.01,2013-03-27 02:43:00,
2013-03-26 22:48:00,32.4,18.9,29.74,West,272,0.0,0.0,57,0.00,,FEW065,0.00,VWS V14.01,2013-03-27 02:48:00,
2013-03-26 22:53:00,32.2,18.7,29.74,West,272,0.0,0.0,57,0.00,,FEW065,0.00,VWS V14.01,2013-03-27 02:53:00,
2013-03-26 22:58:00,32.2,18.7,29.74,West,272,0.0,0.0,57,0.00,,FEW065,0.00,VWS V14.01,2013-03-27 02:58:00,
2013-03-26 23:03:00,32.1,19.0,29.74,West,272,0.0,0.0,58,0.00,,CLR,0.00,VWS V14.01,2013-03-27 03:03:00,
2013-03-26 23:08:00,32.1,19.0,29.74,West,272,0.0,0.0,58,0.00,,CLR,0.00,VWS V14.01,2013-03-27 03:08:00,
2013-03-26 23:13:00,31.9,18.8,29.74,West,272,0.0,0.0,58,0.00,,CLR,0.00,VWS V14.01,2013-03-27 03:13:00,
2013-03-26 23:18:00,31.8,19.1,29.74,West,272,0.0,0.0,59,0.00,,CLR,0.00,VWS V14.01,2013-03-27 03:18:00,
2013-03-26 23:23:00,31.7,19.0,29.74,West,272,0.0,0.0,59,0.00,,CLR,0.00,VWS V14.01,2013-03-27 03:23:00,
2013-03-26 23:28:00,31.5,18.8,29.74,West,272,0.0,0.0,59,0.00,,CLR,0.00,VWS V14.01,2013-03-27 03:28:00,
2013-03-26 23:33:00,31.4,19.1,29.74,West,272,0.0,0.0,60,0.00,,CLR,0.00,VWS V14.01,2013-03-27 03:33:00,
2013-03-26 23:38:00,31.1,18.9,29.74,West,272,0.0,0.0,60,0.00,,CLR,0.00,VWS V14.01,2013-03-27 03:38:00,
2013-03-26 23:43:00,30.9,19.0,29.74,West,272,0.0,0.0,61,0.00,,CLR,0.00,VWS V14.01,2013-03-27 03:43:00,
2013-03-26 23:48:00,30.9,19.0,29.74,West,272,0.0,0.0,61,0.00,,CLR,0.00,VWS V14.01,2013-03-27 03:48:00,
2013-03-26 23:53:00,30.8,19.0,29.74,West,272,0.0,0.0,61,0.00,,CLR,0.00,VWS V14.01,2013-03-27 03:53:00,
2013-03-26 23:58:00,30.8,19.3,29.74,West,272,0.0,0.0,62,0.00,,CLR,0.00,VWS V14.01,2013-03-27 03:58:00,